Date String (YYYY-MM-DD hh:mm:ss) UTC,Instrument flags,Ambient pressure (hPa),Sample flow (lpm),Bypass flow (lpm),Sample temperature (°C),Ambient temperature (°C),ASC tube jacket temperature (°C),LED temperature (°C),Box temperature (°C),Sample RH (%),Span deviation,Mass concentration (μg/m³),Mass concentration (μg/m³),Mass concentration (μg/m³)
DateTimeUTC,F1_M11,P_M11,Q1_M11,Q2_M11,T1_M11,T2_M11,T3_M11,T4_M11,T5_M11,U1_M11,ZSPAN_M11,X2_M11,X0_M11,X1_M11
2023-05-15 14:00:00,,0843.2,5.00,0.00,28.6,27.0,00.0,36.9,30.2,28.5,0000.0,0001.00,0001.48,0000.82
2023-05-15 14:01:00,,0843.1,5.00,0.00,28.6,27.0,00.0,36.9,30.2,28.4,0000.0,0001.01,0001.49,0000.82
2023-05-15 14:02:00,,0843.1,5.00,0.00,28.6,27.0,00.0,36.9,30.2,28.3,0000.0,0000.99,0001.46,0000.81
2023-05-15 14:03:00,,0843.1,4.99,0.00,28.6,27.0,00.0,36.9,30.2,28.3,0000.0,0000.98,0001.43,0000.81
2023-05-15 14:04:00,,0843.2,4.99,0.00,28.6,27.0,00.0,36.9,30.2,28.2,0000.0,0001.00,0002.31,0000.81
2023-05-15 14:05:00,,0843.1,5.01,0.00,28.6,27.0,00.0,36.9,30.2,28.0,0000.0,0000.99,0002.27,0000.80
2023-05-15 14:06:00,,0843.1,5.01,0.00,28.6,27.0,00.0,36.9,30.2,27.9,0000.0,0000.99,0002.74,0000.80
2023-05-15 14:07:00,,0843.1,4.99,0.00,28.6,27.0,00.0,36.9,30.2,27.6,0000.0,0000.98,0003.16,0000.79
2023-05-15 14:08:00,,0843.1,5.00,0.00,28.6,27.0,00.0,36.9,30.2,27.5,0000.0,0000.97,0003.16,0000.79
2023-05-15 14:09:00,,0843.1,5.00,0.00,28.6,27.0,00.0,36.9,30.2,27.5,0000.0,0000.96,0003.22,0000.77
2023-05-15 14:10:00,,0843.1,5.00,0.00,28.6,27.0,00.0,36.9,30.2,27.5,0000.0,0000.94,0003.21,0000.76
2023-05-15 14:11:00,,0843.1,5.00,0.00,28.6,27.0,00.0,36.9,30.2,27.5,0000.0,0000.92,0003.19,0000.74
2023-05-15 14:12:00,,0843.1,5.01,0.00,28.6,27.0,00.0,36.9,30.2,27.5,0000.0,0000.90,0003.19,0000.72
2023-05-15 14:13:00,,0843.1,5.00,0.00,28.6,27.0,00.0,36.9,30.2,27.3,0000.0,0000.90,0003.18,0000.72
2023-05-15 14:14:00,,0843.1,4.98,0.00,28.6,27.0,00.0,36.9,30.2,27.4,0000.0,0000.90,0003.18,0000.72
2023-05-15 14:15:00,,0843.1,5.01,0.00,28.6,27.0,00.0,36.9,30.2,27.5,0000.0,0000.88,0002.33,0000.71
2023-05-15 14:16:00,,0843.1,5.01,0.00,28.6,27.0,00.0,36.9,30.2,27.5,0000.0,0000.91,0002.40,0000.72
2023-05-15 14:17:00,,0843.1,5.00,0.00,28.6,27.0,00.0,36.9,30.2,27.5,0000.0,0000.89,0001.90,0000.71
2023-05-15 14:18:00,,0843.2,5.00,0.00,28.6,27.0,00.0,36.9,30.2,27.2,0000.0,0000.90,0001.39,0000.71
2023-05-15 14:19:00,,0843.1,5.00,0.00,28.6,27.0,00.0,36.9,30.2,26.9,0000.0,0000.91,0001.41,0000.72
2023-05-15 14:20:00,,0843.1,5.00,0.00,28.6,27.0,00.0,36.9,30.2,26.9,0000.0,0000.89,0001.27,0000.72
2023-05-15 14:21:00,,0843.2,5.00,0.00,28.6,27.0,00.0,36.9,30.2,26.3,0000.0,0000.89,0001.27,0000.71
2023-05-15 14:22:00,,0843.2,4.99,0.00,28.6,27.0,00.0,36.9,30.2,26.2,0000.0,0000.88,0001.25,0000.70
2023-05-15 14:23:00,,0843.2,5.00,0.00,28.6,27.0,00.0,36.9,30.2,26.5,0000.0,0000.86,0001.24,0000.67
2023-05-15 14:24:00,,0843.2,5.00,0.00,28.6,27.0,00.0,36.9,30.2,26.9,0000.0,0000.84,0001.21,0000.66
2023-05-15 14:25:00,,0843.2,5.00,0.00,28.6,27.0,00.0,36.9,30.2,26.9,0000.0,0000.84,0001.25,0000.65
2023-05-15 14:26:00,,0843.2,5.00,0.00,28.6,27.0,00.0,36.9,30.2,26.9,0000.0,0000.87,0001.38,0000.64
2023-05-15 14:27:00,,0843.2,5.00,0.00,28.7,27.1,00.0,36.9,30.2,27.1,0000.0,0000.86,0001.37,0000.64
2023-05-15 14:28:00,,0843.2,5.00,0.00,28.7,27.1,00.0,37.0,30.2,26.6,0000.0,0000.88,0001.47,0000.64
2023-05-15 14:29:00,,0843.2,5.00,0.00,28.7,27.1,00.0,37.0,30.2,26.6,0000.0,0000.87,0001.53,0000.63
2023-05-15 14:30:00,,0843.2,5.01,0.00,28.7,27.1,00.0,37.0,30.3,26.8,0000.0,0000.85,0001.48,0000.61
2023-05-15 14:31:00,,0843.2,5.00,0.00,28.7,27.1,00.0,37.0,30.2,26.7,0000.0,0000.85,0001.50,0000.60
2023-05-15 14:32:00,,0843.2,5.00,0.00,28.7,27.1,00.0,37.0,30.2,26.8,0000.0,0000.85,0001.54,0000.60
2023-05-15 14:33:00,,0843.2,5.00,0.00,28.7,27.1,00.0,37.0,30.3,26.7,0000.0,0000.88,0001.61,0000.61
2023-05-15 14:34:00,,0843.2,5.01,0.00,28.7,27.1,00.0,37.0,30.3,27.2,0000.0,0000.90,0001.63,0000.63
2023-05-15 14:35:00,,0843.1,5.00,0.00,28.7,27.1,00.0,37.0,30.3,26.8,0000.0,0000.91,0001.77,0000.64
2023-05-15 14:36:00,,0843.2,4.99,0.00,28.7,27.1,00.0,37.0,30.3,27.3,0000.0,0000.89,0002.36,0000.63
2023-05-15 14:37:00,,0843.1,4.99,0.00,28.7,27.1,00.0,37.0,30.3,27.2,0000.0,0000.85,0002.22,0000.63
2023-05-15 14:38:00,,0843.2,5.01,0.00,28.7,27.1,00.0,37.0,30.3,26.6,0000.0,0000.84,0002.17,0000.63
2023-05-15 14:39:00,,0843.2,5.01,0.00,28.7,27.1,00.0,37.0,30.3,26.4,0000.0,0000.82,0002.07,0000.62
2023-05-15 14:40:00,,0843.2,5.00,0.00,28.7,27.1,00.0,37.0,30.3,26.1,0000.0,0000.79,0001.95,0000.62
2023-05-15 14:41:00,,0843.2,5.00,0.00,28.7,27.1,00.0,37.0,30.3,26.4,0000.0,0000.79,0002.05,0000.61
2023-05-15 14:42:00,,0843.2,4.99,0.00,28.7,27.2,00.0,37.0,30.3,26.4,0000.0,0000.78,0002.32,0000.61
2023-05-15 14:43:00,,0843.1,5.01,0.00,28.7,27.2,00.0,37.0,30.3,26.9,0000.0,0000.80,0002.93,0000.62
2023-05-15 14:44:00,,0843.2,5.00,0.00,28.7,27.2,00.0,37.0,30.3,27.6,0000.0,0000.78,0003.73,0000.60
2023-05-15 14:45:00,,0843.2,5.01,0.00,28.7,27.2,00.0,37.0,30.3,27.1,0000.0,0000.79,0003.81,0000.58
2023-05-15 14:46:00,,0843.1,5.01,0.00,28.7,27.2,00.0,37.0,30.3,25.9,0000.0,0000.76,0003.67,0000.55
2023-05-15 14:47:00,,0843.1,4.99,0.00,28.7,27.2,00.0,37.0,30.3,25.7,0000.0,0000.73,0002.99,0000.53
2023-05-15 14:48:00,,0843.2,5.01,0.00,28.7,27.1,00.0,37.0,30.3,25.9,0000.0,0000.73,0003.00,0000.52
2023-05-15 14:49:00,,0843.1,5.01,0.00,28.7,27.1,00.0,37.0,30.3,25.9,0000.0,0000.71,0002.97,0000.51
2023-05-15 14:50:00,,0843.1,5.01,0.00,28.7,27.1,00.0,37.0,30.3,26.0,0000.0,0000.69,0002.93,0000.49
2023-05-15 14:51:00,,0843.1,4.99,0.00,28.7,27.1,00.0,37.0,30.3,25.9,0000.0,0000.65,0002.87,0000.46
2023-05-15 14:52:00,,0843.1,5.00,0.00,28.7,27.1,00.0,37.0,30.3,25.7,0000.0,0000.63,0002.83,0000.44
2023-05-15 14:53:00,,0843.1,5.00,0.00,28.7,27.1,00.0,37.0,30.3,25.4,0000.0,0000.60,0002.44,0000.41
2023-05-15 14:54:00,,0843.1,4.99,0.00,28.7,27.2,00.0,37.0,30.3,25.6,0000.0,0000.56,0002.05,0000.38
2023-05-15 14:55:00,,0843.2,5.00,0.00,28.7,27.2,00.0,37.0,30.3,25.4,0000.0,0000.53,0000.93,0000.37
2023-05-15 14:56:00,,0843.2,5.01,0.00,28.7,27.2,00.0,37.0,30.3,25.1,0000.0,0000.51,0000.87,0000.35
2023-05-15 14:57:00,,0843.2,5.00,0.00,28.8,27.2,00.0,37.0,30.3,25.1,0000.0,0000.50,0000.82,0000.33
2023-05-15 14:58:00,,0843.2,4.99,0.00,28.8,27.2,00.0,37.1,30.3,25.9,0000.0,0000.48,0000.79,0000.32
2023-05-15 14:59:00,,0843.2,5.00,0.00,28.8,27.2,00.0,37.1,30.3,26.1,0000.0,0000.45,0000.73,0000.30
